YAMAL 300K

Last updated on Mon Oct 14 2024 00:02:39 GMT+0000 (Coordinated Universal Time)

1 38978U 12061B 24287.37146463 .00000070 00000+0 00000+0 0 9997 2 38978 0.0157 262.9334 0000384 163.5052 272.6964 1.00270120 43732
UTC large
Height (km)
Speed (km/s)
/
Latitude / Longitude
Inclination (degrees)
Orbital Period (minutes)
Azimuth
Elevation
Range (km)
Doppler Factor

Next 0 passes for location: London (51.5072 / 0.1276)

Sorry there are no passes over London.